Weather History for Ft. Stewart, GA

Change the Weather History Date:

Thursday, September 12, 2013

  Actual Average Record
Temperature  
Mean Temperature 78 °F -  
Max Temperature 88 °F 88 °F 94 °F (1984)
Min Temperature 69 °F 68 °F 55 °F (1976)
Cooling Degree Days 12    
Growing Degree Days 28 (Base 50)    
Moisture  
Dew Point 73 °F    
Average Humidity 89    
Maximum Humidity 100    
Minimum Humidity 61    
Precipitation  
Precipitation 0.00 in - - ()
Sea Level Pressure  
Sea Level Pressure 30.01 in    
Wind  
Wind Speed 1 mph (North)    
Max Wind Speed 6 mph    
Max Gust Speed -    
Visibility 10 miles    
Events      
Averages and records for this station are not official NWS values.
T = Trace of Precipitation, MM = Missing Value Source: NWS Daily Summary

Daily Weather History Graph

Daily Weather History Graph

Search for Another Location

Airport:

Trip Planner

Search our weather history database for the weather conditions in past years. The results will help you decide how hot, cold, wet, or windy it might be!

Date:

Astronomy

Sep. 12, 2013 Rise Set
Actual Time 7:08 AM EDT 7:35 PM EDT
Civil Twilight 6:44 AM EDT 8:00 PM EDT
Nautical Twilight 6:15 AM EDT 8:28 PM EDT
Astronomical Twilight 5:46 AM EDT 8:58 PM EDT
Moon 2:11 PM EDT (9/12) No Moon Set
Length of Visible Light 13h 16m
Length of Day
12h 27m
Waxing Crescent, 50% of the Moon is Illuminated
Sep 12
Waxing Crescent
Sep 12
First Quarter
Sep 19
Full
Sep 26
Last Quarter
Oct 4
New

Hourly Weather History & Observations

Time (EDT) Temp. Heat Index Dew Point Humidity Pressure Visibility Wind Dir Wind Speed Gust Speed Precip Events Conditions
12:58 AM 71.2 °F - 71.2 °F 100% 30.09 in 9.0 mi Calm Calm - N/A   Clear
1:18 AM 71.6 °F - 71.6 °F 100% 30.07 in 9.0 mi Calm Calm - N/A   Clear
1:48 AM 69.8 °F - 69.8 °F 100% 30.06 in 10.0 mi Calm Calm - N/A   Clear
1:58 AM 70.3 °F - 70.3 °F 100% 30.07 in 9.0 mi Calm Calm - N/A   Clear
2:58 AM 70.5 °F - 70.5 °F 100% 30.06 in 10.0 mi Calm Calm - N/A   Mostly Cloudy
3:58 AM 69.6 °F - 69.6 °F 100% 30.06 in 10.0 mi Calm Calm - N/A   Scattered Clouds
4:58 AM 70.0 °F - 70.0 °F 100% 30.05 in 10.0 mi Calm Calm - N/A   Overcast
5:58 AM 70.0 °F - 70.0 °F 100% 30.06 in 10.0 mi NNW 2.3 mph - N/A   Overcast
6:58 AM 70.2 °F - 70.2 °F 100% 30.05 in 10.0 mi NNW 2.3 mph - N/A   Overcast
7:58 AM 70.7 °F - 70.7 °F 100% 30.06 in 10.0 mi NNW 3.5 mph - N/A   Overcast
8:58 AM 73.9 °F - 73.9 °F 100% 30.06 in 10.0 mi Calm Calm - N/A   Mostly Cloudy
9:58 AM 78.1 °F - 77.9 °F 99% 30.07 in 10.0 mi Calm Calm - N/A   Overcast
10:58 AM 81.5 °F 89.0 °F 76.8 °F 86% 30.06 in 10.0 mi WNW 3.5 mph - N/A   Overcast
11:58 AM 83.5 °F 90.3 °F 74.1 °F 73% 30.05 in 10.0 mi NE 5.8 mph - N/A   Scattered Clouds
12:58 PM 86.7 °F 94.1 °F 73.4 °F 64% 30.03 in 10.0 mi Variable 2.3 mph - N/A   Scattered Clouds
1:58 PM 86.7 °F 93.3 °F 72.5 °F 62% 30.00 in 10.0 mi East 1.2 mph - N/A   Clear
2:58 PM 86.4 °F 92.2 °F 71.4 °F 61% 29.98 in 10.0 mi Calm Calm - N/A   Mostly Cloudy
3:58 PM 86.7 °F 93.3 °F 72.3 °F 62% 29.94 in 10.0 mi Calm Calm - N/A   Partly Cloudy
4:58 PM 85.1 °F 91.8 °F 72.9 °F 67% 29.92 in 10.0 mi Calm Calm - N/A   Scattered Clouds
5:58 PM 85.8 °F 95.9 °F 76.3 °F 73% 29.91 in 10.0 mi East 3.5 mph - N/A   Clear
6:58 PM 84.6 °F 92.1 °F 74.3 °F 71% 29.90 in 10.0 mi Calm Calm - N/A   Clear
7:58 PM 79.5 °F - 75.2 °F 87% 29.91 in 10.0 mi Calm Calm - N/A   Clear
8:58 PM 75.9 °F - 75.4 °F 98% 29.93 in 10.0 mi Calm Calm - N/A   Clear
9:58 PM 74.3 °F - 74.3 °F 100% 29.93 in 10.0 mi Calm Calm - N/A   Clear
10:58 PM 74.3 °F - 74.3 °F 100% 29.94 in 10.0 mi Calm Calm - N/A   Clear
11:58 PM 73.6 °F - 73.6 °F 100% 29.93 in 10.0 mi Calm Calm - N/A   Clear